ARIANE 44LP DEB, 33547

Orbit data source: Space-Track

ARIANE 44LP DEB, 33547 is space debris in HEO originally from a launch on Sun, 11 Dec 1988 UTC launched from the French Guiana (FRGUI). Debris objects in space refer to the collection of defunct objects orbiting the Earth. Examples of debris include non-operational satellites, rocket bodies, and fragments generated from explosions, collisions, or faulty payload assembly.

Loading next visibility...
Identifier
33547, 1988-109W
Orbit
HEO
Country
Flag of FRFR
Related business
Manufacturer
Unknown
Mission
Spacecraft
Bus & Motor
Unknown
Mass
Unknown
Launch date (UTC)
1988-12-11 (38 years ago)
Launch vehicle
Unknown
Launch site
French Guiana (FRGUI)
Object type
Payload
Rocket body
Debris
Shape & HBR
Unknown shape, 0.2 m
Radar Cross Section
Medium (>0.1 m² and <1 m²)

Expand to show TLE details & history
Last TLE update: 3 days ago

TLE from 3 days ago
0 ARIANE 44LP DEB
1 33547U 88109W   26254.91694416  .00000087  00000-0  42215-2 0  9998
2 33547   6.4631 180.5077 7018992 166.3749 232.8582  2.40116788226472
Epoch: 2026-09-11T22:00Z
TLE epoch observation values (Epoch: 2026-09-11T22:00:23.975Z)
Latitude
0.00012°
Longitude
-140.65269°
Altitude
31,265.241 km
Speed
2.063 km/s
True Right ascension
12h 01m 31s
True Declination
0° 00' 00"
Sunlit
Object was in daylight at epoch
Visualization orbit readout
Latitude
Unknown
Longitude
Unknown
Altitude
Unknown
Speed
Unknown
Apparent Right ascension
Unknown
Apparent Declination
Unknown
Sunlit
N/A
Visualization observer readout
Local Sidereal Time
07:33:42
Azimuth
Unknown
Elevation
Unknown
Doppler factor
Unknown
Orbital elements
Apogee altitude
33,722.182 km
Perigee altitude
645.744 km
Semi-major axis
23,562.1 km
Eccentricity
0.7019
Inclination
6.4631°
RAAN
180.5077°
Arg. of periapsis
166.3749°
True anomaly
193.55984°
Mean anomaly
232.8582°
Eccentric anomaly
211.71622°
Mean motion
0.6001 °/min
Orbital period
599.9 mins
BSTAR
0.0042215
Loading maneuver chart data...
Computing Atmospheric mass density...
Loading historical data...
Loading historical data...
Loading historical data...
Loading historical data...
Loading historical data...
Loading historical data...
Loading historical data...

Documentation

Showing up to 5 results
|